Regional Weather Roundup
Issued by NWS

Home | Current Version | Previous Version | Text Only | Print | Product List | Glossary On
Versions: 1 2 3 4 5 6 7 8 9 10 11 12 13 14 15 16 17 18 19 20 21 22 23 24 25 26 27 28 29 30 31 32 33 34 35 36 37 38 39 40 41 42 43 44 45 46 47 48 49 50
000
ASUS44 KLUB 220810
RWRTX
WEST TEXAS WEATHER ROUNDUP
NATIONAL WEATHER SERVICE LUBBOCK TX
300 AM CDT WED OCT 22 2014

NOTE: "FAIR" INDICATES FEW OR NO CLOUDS BELOW 12,000 FEET WITH NO
SIGNIFICANT WEATHER AND/OR OBSTRUCTIONS TO VISIBILITY.

TXZ004-006>008-010-012-014-016-OKZ002-220900-
TEXAS PANHANDLE/OKLAHOMA PANHANDLE

CITY           SKY/WX    TMP DP  RH WIND       PRES   REMARKS
AMARILLO       MOCLDY    59  52  77 S10       30.09R
BORGER         CLOUDY    62  50  64 SW5       30.07S
CANADIAN       CLEAR     62  52  70 S12       30.05S
DALHART        CLOUDY    59  55  87 SW12      30.08R
DUMAS          MOCLDY    56  52  88 S8        30.07S
GUYMON         MOCLDY    57  49  74 S8        30.03S
HEREFORD       CLOUDY    60  59  95 MISG      30.10S
PAMPA          CLEAR     53  47  81 S6        30.08S
PERRYTON       CLEAR     53  48  81 S8        30.05S
$$

TXZ026-029-035-045-048-220900-
SOUTHERN PANHANDLE/SOUTH PLAINS/ROLLING PLAINS

CITY           SKY/WX    TMP DP  RH WIND       PRES   REMARKS
CHILDRESS      PTCLDY    57  49  74 S9        30.07S
SEMINOLE       CLOUDY    61  59  91 S3        30.10S
LUBBOCK        CLOUDY    63  50  62 S12       30.09R
PLAINVIEW      CLOUDY    57  52  82 S3        30.08S
SNYDER         PTCLDY    62  52  70 SE9       30.08S
$$

TXZ052-054-060>062-072-078-127-140-154-169-220900-
PERMIAN BASIN/CONCHO VALLEY/BIG COUNTRY/EDWARDS PLATEAU

CITY           SKY/WX    TMP DP  RH WIND       PRES   REMARKS
ABILENE        PTCLDY    64  49  57 S10       30.08R
BIG SPRING     CLOUDY    64  57  78 S3        30.10S
BRADY          CLEAR     63  48  59 SE3       30.07S
BROWNWOOD      MOCLDY    59  54  82 CALM      30.08S
JUNCTION       CLOUDY    68  47  46 E6        30.07S
MIDLAND        CLOUDY    67  59  75 S7        30.07S
ODESSA         CLOUDY    65  59  81 S3        30.08S
SAN ANGELO     CLOUDY    69  51  52 SE8       30.06S
SONORA         CLOUDY    64  57  77 SE3       30.11S
SWEETWATER     PTCLDY    64  49  57 SE10      30.11R
WINK           MOCLDY    64  61  90 SE9       30.05S
$$

TXZ055-058-074-075-080-082-220900-
FAR WEST/SOUTHWEST MOUNTAINS/TRANS PECOS

CITY           SKY/WX    TMP DP  RH WIND       PRES   REMARKS
ALPINE         CLOUDY    60  57  88 SE6       30.16F
DRYDEN           N/A     65  64  97 E8        30.03S
EL PASO        PTCLDY    60  55  83 CALM      30.06S
FORT STOCKTON  CLOUDY    60  58  92 CALM      30.07S
GUADALUPE PASS MOCLDY    54  53  97 CALM      30.16S
MARFA          CLOUDY    57  55  94 NE3       30.14S
PECOS          MOCLDY    60  58  94 E5        30.05S
PRESIDIO       CLOUDY    65  60  83 NE7       30.03S
$$

TXZ014-016-019-021>030-083-220900
TEXAS TECH WEST TEXAS MESONET/TEXAS PANHANDLE/NORTHERN SOUTH PLAINS

CITY           SKY/WX    TMP DP  RH WIND       PRES   REMARKS
ABERNATHY 5ENE   N/A     57  52  83 S5        30.11R
AMARILLO 9NNE    N/A     58  52  79 S7        30.07F
AMARILLO 7SSE    N/A     56  52  85 S5        30.10S
AMHERST 1NE      N/A     60  55  84 S6        30.10S
BOOTLEG 11WNW    N/A     58  55  90 S9        30.12S
CANADIAN 6E      N/A     57  50  77 S8        30.04S
CAPROCK CYN SP   N/A     63  50  62 SW10      30.08S
CHILDRESS 2NNE   N/A     58  49  73 S7        30.06S
CLARENDON 2WSW   N/A     58  49  71 S8        30.08R
CLAUDE 12SW      N/A     62  51  66 S9        30.09F
DIMMITT 2NE      N/A     59  54  83 S7        30.10S
FLOYDADA 2NNE    N/A     57  50  76 S6        30.09S
FRIONA 2NE       N/A     59  55  84 S7        30.11S
GOODLETT 3W      N/A     58  48  68 S6        30.05S
HART 3N          N/A     60  53  76 S6        30.10S
HEREFORD 2NW     N/A     60  55  83 S5        30.10R
MCLEAN 1E        N/A     56  48  74 SE8       30.06S
MEMPHIS 1NE      N/A     52  46  80 N1        30.06S
MULESHOE 2SSW    N/A     58  56  94 S2        30.10S
OLTON 6S         N/A     61  51  71 S9        30.09F
PALO DURO SP     N/A     60  51  73 S5        30.10S
PAMPA 2E         N/A     56  49  75 S7        30.08S
PLAINVIEW 1S     N/A     58  52  80 S3        30.09S
SILVERTON 7ESE   N/A     60  49  67 S9        30.10R
TULIA 2ENE       N/A     58  52  80 SE6       30.10S
TURKEY 2WSW      N/A     56  50  80 SE5       30.07R
UMBARGER 3NNE    N/A     60  55  85 S8        30.10S
$$

TXZ033>036-039>041-045>048-220900
TEXAS TECH WEST TEXAS MESONET/SOUTH PLAINS

CITY           SKY/WX    TMP DP  RH WIND       PRES   REMARKS
AIKEN 3WSW       N/A     56  51  82 S5        30.11S
ANDREWS 2NE      N/A     63  56  79 S2        30.09S
ANTON 6SSW       N/A     61  53  76 SE5       30.09F
BROWNFIELD 2S    N/A     59  54  83 S5        30.10S
DENVR CTY 7WNW   N/A     59  56  90 S3        30.09F
GAIL 2ESE        N/A     61  52  72 S3        30.07S
LAMESA 2SE       N/A     60  55  82 S2        30.09S
LEVELLAND 4S     N/A     60  52  76 S5        30.10S
LUBBOCK 3WNW     N/A     64  49  59 S9        30.09S
MORTON 1ENE      N/A     59  56  89 S3        30.10S
ODONNELL 1N      N/A     61  50  67 SE3       30.09S
PLAINS 3N        N/A     60  56  88 S8        30.10S
RALLS 1SE        N/A     54  49  83 S7        30.10S
REESE CENTER     N/A     62  51  66 S9        30.09S
SEMINOLE 2NNE    N/A     61  58  88 SE5       30.09S
SLATON 2NE       N/A     60  51  72 S6        30.09S
SNYDER 3E        N/A     60  53  75 SE8       30.07S
SUNDOWN 8SW      N/A     60  55  83 S5        30.10S
TAHOKA 3NNE      N/A     59  52  76 SE5       30.08F
WOLFFORTH 6SSW   N/A     62  52  71 S6        30.09F
$$

TXZ031-032-036>038-042>044-220900-
TEXAS TECH WEST TEXAS MESONET/ROLLING PLAINS

CITY           SKY/WX    TMP DP  RH WIND       PRES   REMARKS
ASPERMONT 3NE    N/A     61  50  69 SE7       30.06S
FLUVANNA 3WNW    N/A     62  51  67 SE9       30.08R
GRAHAM 5SSW      N/A     62  50  65 SE5       30.08S
GUTHRIE 10WSW    N/A     59  50  73 SE8       30.06R
HASKELL 1NW      N/A     62  49  62 SE3       30.06S
JAYTON 1SSE      N/A     60  51  72 SE6       30.07R
KNOX CITY 3NW    N/A     61  49  65 S7        30.06S
LK A HENRY 1NW   N/A     62  52  69 SE2       30.07R
NORTHFIELD 1S    N/A     60  51  70 S7        30.06R
ODELL 4ENE       N/A     62  51  67 SE10      30.06S
PADUCAH 10SW     N/A     56  50  78 S6        30.07R
POST 1NE         N/A     62  50  66 S3        30.08R
RRING SPRGS 3N   N/A     55  50  82 SW6       30.08S
SEYMOUR 3NW      N/A     59  49  71 SE6       30.06S
SPUR 1W          N/A     52  48  86 NW3       30.07R
WEINERT 2NNE     N/A     61  49  65 SE7       30.06S
WHITE RVR 6NE    N/A     61  50  65 S2        30.08S
$$

TXZ052-054-060>062-072-078-127-140-154-169-220900-
TEXAS TECH WEST TEXAS MESONET/PERMIAN BASIN/
CONCHO VALLEY/BIG COUNTRY/EDWARDS PLATEAU

CITY           SKY/WX    TMP DP  RH WIND       PRES   REMARKS
COYANOSA 2N      N/A     64  61  90 E7        30.06S
JUNCTION 1SSW    N/A     67  47  48 SE7       30.07S
MERTZON 3NNE     N/A     67  53  59 SE9       30.08S
SAN ANGELO 7NW   N/A     68  50  52 SE8       30.07S
STRLNG CT 4WSW   N/A     67  54  61 SE6       30.08S
ST LAWRNCE 5SW   N/A     64  58  81 SE5       30.08S
SWEETWATR 11SW   N/A     64  51  62 SE12      30.09S
WALL 1E          N/A     66  50  54 SE9       30.07S
$$

TXZ055-058-074-075-080-082-220900-
TEXAS TECH WEST TEXAS MESONET/FAR WEST/SOUTHWEST MOUNTAINS/TRANS PECOS

CITY           SKY/WX    TMP DP  RH WIND       PRES   REMARKS
PRSMN GAP BBNP   N/A     64  61  92 N12       30.05R
GUADLPE MTN NP   N/A     55  52  90 SW1       30.16S
$$



USA.gov is the U.S. government's official web portal to all federal, state and local government web resources and services.